Weather History for Lakeville, MN

Change the Weather History Date:

Tuesday, October 1, 2013

  Actual Average Record
Temperature  
Mean Temperature 58 °F -  
Max Temperature 73 °F 68 °F 125 °F (1998)
Min Temperature 42 °F 45 °F 28 °F (1974)
Degree Days  
Heating Degree Days 8    
Growing Degree Days 8 (Base 50)    
Moisture  
Dew Point 45 °F    
Average Humidity 56    
Maximum Humidity 93    
Minimum Humidity 25    
Precipitation  
Precipitation 0.00 in - - ()
Sea Level Pressure  
Sea Level Pressure 29.81 in    
Wind  
Wind Speed 9 mph (West)    
Max Wind Speed 15 mph    
Max Gust Speed 23 mph    
Visibility 10 miles    
Events      
Averages and records for this station are not official NWS values.
T = Trace of Precipitation, MM = Missing Value Source: NWS Daily Summary

Daily Weather History Graph

Daily Weather History Graph

Search for Another Location

Airport:

Trip Planner

Search our weather history database for the weather conditions in past years. The results will help you decide how hot, cold, wet, or windy it might be!

Date:

Astronomy

Oct. 01, 2013 Rise Set
Actual Time 7:11 AM CDT 6:53 PM CDT
Civil Twilight 6:42 AM CDT 7:22 PM CDT
Nautical Twilight 6:08 AM CDT 7:55 PM CDT
Astronomical Twilight 5:33 AM CDT 8:30 PM CDT
Moon 3:38 AM CDT (10/1) 5:02 PM CDT (10/1)
Length of Visible Light 12h 39m
Length of Day
11h 41m
Waning Crescent, 12% of the Moon is Illuminated
Oct 1
Waning Crescent
Oct 4
New
Oct 11
First Quarter
Oct 18
Full
Oct 26
Last Quarter

Hourly Weather History & Observations

Time (CDT) Temp. Dew Point Humidity Pressure Visibility Wind Dir Wind Speed Gust Speed Precip Events Conditions
12:11 AM 64.4 °F 50.0 °F 59% 29.65 in 10.0 mi SSW 9.2 mph - N/A   Clear
12:32 AM 64.4 °F 50.0 °F 59% 29.65 in 10.0 mi South 10.4 mph 17.3 mph N/A   Clear
12:52 AM 64.4 °F 50.0 °F 59% 29.64 in 10.0 mi South 9.2 mph - N/A   Clear
1:11 AM 62.6 °F 50.0 °F 63% 29.64 in 10.0 mi South 8.1 mph - N/A   Clear
1:32 AM 62.6 °F 50.0 °F 63% 29.64 in 10.0 mi SSW 8.1 mph - N/A   Clear
1:52 AM 62.6 °F 50.0 °F 63% 29.64 in 10.0 mi South 9.2 mph - N/A   Clear
2:12 AM 62.6 °F 50.0 °F 63% 29.64 in 10.0 mi SSW 8.1 mph - N/A   Clear
2:32 AM 62.6 °F 50.0 °F 63% 29.63 in 10.0 mi SSW 10.4 mph - N/A   Clear
2:51 AM 64.4 °F 50.0 °F 59% 29.63 in 10.0 mi South 10.4 mph 16.1 mph N/A   Clear
3:12 AM 64.4 °F 51.8 °F 64% 29.62 in 10.0 mi South 13.8 mph 18.4 mph N/A   Clear
3:32 AM 64.4 °F 51.8 °F 64% 29.62 in 10.0 mi SSW 10.4 mph 19.6 mph N/A   Clear
3:51 AM 64.4 °F 51.8 °F 64% 29.63 in 10.0 mi SW 4.6 mph - N/A   Clear
4:12 AM 64.4 °F 51.8 °F 64% 29.62 in 10.0 mi SSW 8.1 mph - N/A   Clear
4:32 AM 64.4 °F 51.8 °F 64% 29.63 in 10.0 mi SW 10.4 mph - N/A   Clear
4:51 AM 66.2 °F 51.8 °F 60% 29.63 in 10.0 mi SW 8.1 mph 16.1 mph N/A   Clear
5:12 AM 64.4 °F 51.8 °F 64% 29.64 in 10.0 mi WSW 8.1 mph 17.3 mph N/A   Clear
5:31 AM 64.4 °F 51.8 °F 64% 29.65 in 10.0 mi WSW 9.2 mph - N/A   Clear
5:52 AM 62.6 °F 51.8 °F 68% 29.65 in 10.0 mi SW 6.9 mph 16.1 mph N/A   Clear
6:11 AM 62.6 °F 51.8 °F 68% 29.66 in 10.0 mi SW 6.9 mph - N/A   Clear
6:32 AM 62.6 °F 51.8 °F 68% 29.67 in 10.0 mi WSW 6.9 mph 16.1 mph N/A   Clear
6:52 AM 60.8 °F 51.8 °F 72% 29.69 in 10.0 mi WSW 6.9 mph - N/A   Clear
7:11 AM 60.8 °F 51.8 °F 72% 29.70 in 10.0 mi WSW 8.1 mph - N/A   Clear
7:32 AM 60.8 °F 51.8 °F 72% 29.72 in 10.0 mi West 6.9 mph - N/A   Clear
7:51 AM 60.8 °F 51.8 °F 72% 29.73 in 10.0 mi West 11.5 mph - N/A   Clear
8:12 AM 62.6 °F 51.8 °F 68% 29.75 in 10.0 mi West 9.2 mph - N/A   Clear
8:32 AM 62.6 °F 51.8 °F 68% 29.77 in 10.0 mi WNW 11.5 mph - N/A   Clear
8:51 AM 64.4 °F 51.8 °F 64% 29.79 in 10.0 mi WNW 12.7 mph 18.4 mph N/A   Clear
9:12 AM 64.4 °F 51.8 °F 64% 29.79 in 10.0 mi WNW 11.5 mph 19.6 mph N/A   Clear
9:32 AM 64.4 °F 51.8 °F 64% 29.81 in 10.0 mi WNW 13.8 mph - N/A   Clear
9:51 AM 66.2 °F 50.0 °F 56% 29.82 in 10.0 mi NW 13.8 mph 20.7 mph N/A   Clear
10:12 AM 66.2 °F 50.0 °F 56% 29.83 in 10.0 mi NW 10.4 mph 16.1 mph N/A   Clear
10:32 AM 66.2 °F 48.2 °F 52% 29.84 in 10.0 mi NW 11.5 mph 17.3 mph N/A   Clear
10:51 AM 68.0 °F 46.4 °F 46% 29.84 in 10.0 mi WNW 11.5 mph - N/A   Clear
11:11 AM 69.8 °F 42.8 °F 38% 29.85 in 10.0 mi NW 12.7 mph 18.4 mph N/A   Clear
11:32 AM 69.8 °F 42.8 °F 38% 29.86 in 10.0 mi NW 11.5 mph - N/A   Clear
11:52 AM 69.8 °F 42.8 °F 38% 29.86 in 10.0 mi NNW 10.4 mph - N/A   Clear
12:11 PM 69.8 °F 42.8 °F 38% 29.86 in 10.0 mi WNW 8.1 mph 16.1 mph N/A   Clear
12:32 PM 71.6 °F 41.0 °F 33% 29.87 in 10.0 mi NW 11.5 mph - N/A   Clear
12:52 PM 71.6 °F 39.2 °F 31% 29.87 in 10.0 mi WNW 10.4 mph 21.9 mph N/A   Clear
1:11 PM 73.4 °F 39.2 °F 29% 29.87 in 10.0 mi WNW 15.0 mph 20.7 mph N/A   Clear
1:32 PM 73.4 °F 39.2 °F 29% 29.88 in 10.0 mi NW 12.7 mph - N/A   Clear
1:52 PM 73.4 °F 35.6 °F 25% 29.87 in 10.0 mi WNW 12.7 mph 20.7 mph N/A   Clear
2:11 PM 73.4 °F 35.6 °F 25% 29.87 in 10.0 mi WNW 15.0 mph 20.7 mph N/A   Clear
2:32 PM 73.4 °F 35.6 °F 25% 29.88 in 10.0 mi WNW 12.7 mph 23.0 mph N/A   Clear
2:52 PM 73.4 °F 35.6 °F 25% 29.88 in 10.0 mi WNW 11.5 mph 17.3 mph N/A   Clear
3:11 PM 73.4 °F 35.6 °F 25% 29.88 in 10.0 mi West 11.5 mph 18.4 mph N/A   Clear
3:32 PM 73.4 °F 37.4 °F 27% 29.89 in 10.0 mi WNW 12.7 mph 16.1 mph N/A   Clear
3:52 PM 73.4 °F 35.6 °F 25% 29.89 in 10.0 mi West 11.5 mph - N/A   Clear
4:11 PM 73.4 °F 35.6 °F 25% 29.89 in 10.0 mi West 11.5 mph 20.7 mph N/A   Clear
4:32 PM 73.4 °F 35.6 °F 25% 29.89 in 10.0 mi WNW 11.5 mph 16.1 mph N/A   Clear
4:52 PM 71.6 °F 35.6 °F 27% 29.90 in 10.0 mi West 10.4 mph 19.6 mph N/A   Clear
5:11 PM 71.6 °F 37.4 °F 29% 29.90 in 10.0 mi West 8.1 mph - N/A   Clear
5:32 PM 71.6 °F 37.4 °F 29% 29.90 in 10.0 mi West 10.4 mph - N/A   Clear
5:51 PM 69.8 °F 35.6 °F 28% 29.91 in 10.0 mi West 4.6 mph - N/A   Clear
6:12 PM 68.0 °F 39.2 °F 35% 29.91 in 10.0 mi West 3.5 mph - N/A   Clear
6:32 PM 64.4 °F 39.2 °F 40% 29.91 in 10.0 mi West 4.6 mph - N/A   Clear
6:52 PM 62.6 °F 39.2 °F 42% 29.92 in 10.0 mi West 3.5 mph - N/A   Clear
7:12 PM 53.6 °F 42.8 °F 67% 29.92 in 7.0 mi Calm Calm - N/A   Clear
7:31 PM 51.8 °F 42.8 °F 71% 29.93 in 10.0 mi WSW 3.5 mph - N/A   Clear
7:52 PM 57.2 °F 39.2 °F 51% 29.94 in 10.0 mi West 4.6 mph - N/A   Clear
8:12 PM 50.0 °F 41.0 °F 71% 29.94 in 10.0 mi Calm Calm - N/A   Clear
8:31 PM 50.0 °F 42.8 °F 76% 29.95 in 10.0 mi Calm Calm - N/A   Clear
8:52 PM 50.0 °F 42.8 °F 76% 29.95 in 10.0 mi Calm Calm - N/A   Clear
9:12 PM 46.4 °F 41.0 °F 81% 29.96 in 10.0 mi Calm Calm - N/A   Clear
9:31 PM 46.4 °F 42.8 °F 87% 29.96 in 10.0 mi Calm Calm - N/A   Clear
9:52 PM 46.4 °F 41.0 °F 81% 29.96 in 10.0 mi Calm Calm - N/A   Clear
10:12 PM 44.6 °F 41.0 °F 87% 29.97 in 10.0 mi Calm Calm - N/A   Clear
10:31 PM 42.8 °F 41.0 °F 93% 29.98 in 10.0 mi Calm Calm - N/A   Clear
10:52 PM 44.6 °F 42.8 °F 93% 29.98 in 10.0 mi Calm Calm - N/A   Clear
11:12 PM 44.6 °F 39.2 °F 81% 29.99 in 10.0 mi Calm Calm - N/A   Clear
11:31 PM 44.6 °F 39.2 °F 81% 30.00 in 10.0 mi Calm Calm - N/A   Clear
11:52 PM 42.8 °F 39.2 °F 87% 30.00 in 10.0 mi Calm Calm - N/A   Clear